Dewpoint
67 67 67 66 66 67 67 67 67 67 67 67 67 66 66 65 66 66 66 66 67 67 67 67 67 67 67 66 66 65 64 64 64 64 63 63 62 62 62 62 62 61 61 62 62 62 61 61 61 60 59 60 60 60 59 59 58 56 55 54 51 50 49 48 47 46 46 46 45 44 44 45 43 43 43 45 45 42 42 38 41 46 45 43 45
67 67 67 67 67 67 67 68 68 67 67 67 67 67 67 66 66 66 66 66 67 67 67 67 67 67 67 66 66 65 64 64 64 63 63 62 62 62 61 61 61 59 60 62 61 61 60 60 59 58 61 60 60 59 59 58 57 56 55 54 51 50 49 48 47 46 45 43 43 44 43 43 42 40 42 44 43 42 38 38 41 43 40 38 40
67 67 67 67 67 67 67 68 68 68 67 67 67 67 67 67 66 66 66 66 67 67 67 67 67 67 67 66 66 65 65 64 64 63 63 62 62 61 61 60 60 59 59 60 61 60 59 59 60 60 61 60 60 60 59 58 58 56 54 54 53 51 50 51 47 45 44 43 43 42 42 41 41 38 39 42 43 41 38 37 38 40 40 37 37
67 67 67 67 67 67 67 67 68 68 68 68 68 68 67 67 67 67 67 67 67 67 67 67 67 67 67 66 66 65 65 64 64 63 63 62 62 61 60 60 59 59 58 59 60 60 59 59 60 61 60 59 59 59 59 58 58 57 56 54 53 53 52 52 48 46 45 42 42 42 42 41 41 38 39 41 42 41 40 40 38 37 37 39 35
67 67 67 67 67 67 67 67 67 68 68 68 68 68 68 67 67 67 67 67 67 67 67 67 67 67 67 66 66 65 65 64 64 63 63 62 62 61 60 59 59 58 58 57 61 60 59 59 59 60 60 58 58 58 58 58 58 57 56 55 53 53 54 54 51 47 44 42 42 42 43 41 41 37 37 36 39 41 42 41 39 36 36 36 37
67 67 67 67 67 67 67 67 67 67 68 68 68 68 68 67 67 67 67 67 67 67 67 67 67 67 66 66 65 65 65 64 64 63 62 62 62 61 60 59 59 58 57 57 58 59 59 58 58 59 59 58 57 57 58 58 57 56 56 56 55 54 53 53 52 46 45 43 41 42 42 41 37 37 35 35 37 39 40 40 39 39 37 36 36
67 67 67 67 67 67 67 67 67 67 67 68 68 68 68 67 67 67 67 67 67 67 67 67 67 66 66 66 65 65 64 64 63 63 62 62 61 61 60 59 59 59 57 57 57 58 59 58 58 59 58 58 57 57 57 57 57 56 56 56 56 54 53 53 52 47 45 43 41 42 42 42 38 36 36 36 35 36 38 39 38 38 38 36 36
67 67 67 67 67 67 67 67 67 67 67 68 68 68 68 67 67 67 67 67 67 67 67 67 66 66 66 65 65 64 64 63 63 62 62 62 61 60 60 59 58 58 57 57 57 57 58 58 58 58 58 58 57 57 57 57 56 56 56 56 55 54 53 53 52 48 45 43 41 41 42 41 39 39 38 35 34 34 37 38 37 37 36 37 36
67 67 67 67 67 67 67 67 67 67 67 68 68 68 68 68 67 67 67 67 67 67 67 67 66 66 65 65 64 64 64 63 63 62 62 61 61 60 59 59 58 57 57 57 57 56 57 58 58 58 58 59 58 57 57 58 56 56 55 55 55 54 53 52 51 49 46 43 42 42 42 41 40 38 36 34 33 32 34 38 37 38 36 37 38
63 66 67 67 67 67 67 67 67 68 67 67 68 68 68 68 67 67 67 67 67 67 66 66 66 65 65 65 64 63 63 63 61 58 58 61 60 60 59 58 57 56 56 56 55 54 55 57 58 60 59 59 57 54 52 53 55 56 56 55 55 55 54 52 50 49 46 43 42 41 41 41 40 38 36 35 34 36 36 37 37 39 37 37 37
60 65 66 66 67 67 67 67 67 67 67 68 68 68 68 68 67 67 67 67 67 66 66 66 65 65 64 64 64 63 63 62 55 52 52 55 60 59 59 58 56 55 54 53 52 52 53 55 56 59 59 59 55 51 50 50 50 51 52 54 56 56 54 52 50 48 46 44 43 41 41 40 40 39 37 36 36 35 34 35 36 39 37 35 34
59 60 65 65 66 66 67 67 67 67 67 67 68 68 68 68 67 67 67 67 67 66 66 65 65 65 64 64 63 63 62 58 50 50 50 50 55 59 58 57 55 53 53 52 52 52 53 53 53 54 52 50 47 47 47 47 47 48 48 49 49 50 51 53 51 48 47 45 43 41 40 40 40 41 40 38 36 37 37 36 35 37 37 35 34
59 60 63 66 65 65 66 66 66 67 67 67 68 68 68 68 67 67 67 67 67 66 66 65 65 64 64 63 63 62 62 53 49 49 49 49 50 56 57 56 54 53 52 52 51 51 51 51 51 50 50 54 51 45 44 43 43 43 44 44 45 46 45 46 47 50 48 46 44 42 41 40 40 40 41 39 39 37 39 37 37 37 37 36 36
55 58 59 62 65 66 65 65 65 66 66 67 67 67 67 67 67 67 67 67 67 66 65 65 65 64 63 63 63 62 61 53 48 48 48 47 47 52 56 55 53 52 52 51 51 51 50 50 50 49 50 50 45 44 44 43 45 46 46 45 46 47 46 44 44 45 47 47 45 44 43 42 41 40 43 42 40 39 39 38 38 38 38 38 38
49 53 56 59 63 65 66 65 65 65 66 66 67 67 67 67 67 67 67 67 66 66 65 65 65 64 63 63 62 61 61 50 47 47 47 46 46 51 55 55 53 52 52 51 51 51 50 50 50 49 50 47 45 45 44 44 45 46 44 43 42 42 42 43 45 48 49 49 47 46 45 43 42 42 43 44 41 40 40 39 39 39 40 42 41
44 48 53 56 59 63 65 65 65 65 65 66 66 67 67 67 67 67 66 66 66 66 65 65 64 63 63 62 61 60 60 48 47 46 46 45 46 55 55 54 53 53 52 51 51 51 51 50 49 49 50 48 48 43 45 46 46 45 43 41 39 39 40 44 39 40 45 48 48 47 46 45 43 43 44 44 43 43 44 44 43 41 40 40 39
44 46 49 54 58 61 64 65 65 65 65 65 66 66 67 67 67 66 66 66 66 65 65 64 64 63 63 62 61 60 58 49 46 46 46 45 48 56 54 54 53 52 52 52 51 51 52 50 49 49 49 48 46 40 41 47 46 44 42 40 40 39 39 41 40 39 39 40 42 44 43 42 41 41 41 41 42 44 43 42 42 41 39 38 39
45 45 48 52 56 60 63 64 64 64 65 65 65 66 66 67 67 66 66 65 65 65 65 64 64 63 62 62 61 59 57 50 45 45 45 44 51 55 54 53 52 52 52 52 51 52 52 53 52 48 48 48 44 40 41 46 46 44 42 40 39 39 38 39 41 41 39 39 39 39 41 41 41 40 40 41 41 44 41 41 41 40 39 38 37
45 46 47 51 55 59 62 64 64 64 64 65 65 66 66 66 66 66 66 65 65 65 64 64 63 63 62 61 58 58 55 50 44 45 45 45 51 55 54 53 52 52 51 51 51 51 51 53 52 49 48 47 42 40 41 46 46 44 42 41 40 39 38 39 40 39 39 40 40 41 41 44 44 43 44 40 41 45 42 41 41 40 39 38 38
46 48 49 51 54 57 61 63 64 64 64 65 65 66 66 66 66 66 65 65 65 64 63 63 63 62 61 60 57 57 55 52 46 44 45 45 49 55 54 53 52 52 51 51 51 49 51 51 50 43 43 42 41 40 40 42 46 44 42 42 41 40 39 39 40 40 40 40 39 40 40 40 41 42 42 42 44 45 41 41 41 40 39 39 39
46 48 51 53 55 56 59 63 64 64 64 65 65 65 66 66 66 65 65 65 65 64 63 63 63 62 60 59 57 56 55 52 48 43 45 46 47 51 54 53 53 52 51 51 51 50 50 51 49 44 41 41 41 40 40 41 43 45 42 42 42 41 39 39 42 45 40 40 40 40 39 39 39 39 41 42 42 42 42 41 41 40 40 40 38
47 48 50 52 55 57 59 62 64 64 64 65 65 65 66 66 66 65 65 65 64 64 63 63 63 61 60 59 57 56 54 51 50 43 44 45 46 48 53 53 53 52 51 51 50 50 50 50 48 45 40 40 40 39 40 40 41 46 43 40 38 37 39 41 41 41 40 40 39 39 38 37 37 37 38 40 41 41 40 40 41 41 41 40 39
47 49 50 51 53 56 59 60 62 64 64 64 65 65 66 66 65 65 64 64 64 64 63 63 62 60 59 58 57 56 54 51 47 47 44 44 45 46 48 50 46 52 51 50 49 49 49 49 48 45 40 39 39 39 39 40 42 44 40 38 37 37 39 41 40 40 39 38 39 38 37 36 36 36 37 37 37 38 38 38 39 41 42 41 40
46 47 48 50 52 54 57 60 62 63 64 64 64 65 65 65 65 65 64 64 64 63 63 62 62 60 59 57 56 55 54 52 47 46 46 43 44 45 45 46 46 51 51 51 50 49 48 47 46 41 39 39 38 38 38 40 42 39 38 38 37 38 40 40 39 39 38 37 37 37 38 36 35 35 36 37 37 37 38 37 37 38 39 39 41
46 47 47 49 51 53 57 60 62 63 62 63 64 65 64 64 64 64 64 64 64 63 63 62 61 60 59 57 56 55 53 52 50 46 44 43 43 43 43 43 44 45 50 50 49 49 45 43 41 39 38 38 38 37 37 38 37 36 37 38 41 38 38 38 38 37 37 36 37 37 37 37 37 37 37 36 36 36 36 38 38 38 38 40 40
45 45 46 48 50 53 56 60 62 61 62 63 63 64 64 64 64 64 64 64 64 63 62 62 61 60 59 58 56 54 53 52 51 49 46 45 44 42 42 42 44 45 47 49 45 44 42 41 39 38 38 38 39 39 39 40 37 37 37 40 41 38 37 37 37 36 35 35 35 35 35 35 35 36 36 37 37 36 36 36 36 36 37 38 38
43 43 44 46 49 53 55 58 60 62 63 63 64 63 64 64 64 63 64 64 63 63 62 60 60 60 59 58 56 54 53 52 51 50 48 48 48 44 44 44 44 44 47 47 46 45 42 42 40 38 38 38 38 38 39 38 37 38 39 42 40 38 37 36 36 35 34 34 34 33 33 34 36 37 36 37 38 37 37 35 36 36 37 36 36
41 40 41 43 46 50 54 52 57 62 63 63 63 63 64 64 64 63 63 63 63 63 61 60 60 60 59 58 56 54 53 52 51 50 49 49 48 45 44 45 46 47 47 47 47 46 43 39 39 40 40 40 39 38 38 38 38 37 38 40 39 38 39 40 40 35 34 34 33 34 34 36 36 37 36 37 38 38 38 36 36 35 37 37 34
40 40 41 42 44 48 54 58 60 62 63 63 63 63 64 64 64 64 64 64 64 63 62 62 60 61 60 58 55 54 53 52 52 47 48 45 45 46 45 45 45 46 46 43 45 42 41 40 40 40 40 39 38 39 38 37 37 38 38 38 38 38 37 37 37 36 35 35 35 35 34 37 36 36 37 38 38 38 38 37 37 37 37 37 33
41 41 41 42 43 49 55 58 60 60 62 63 63 58 50 52 60 64 63 56 54 54 55 61 61 61 60 58 56 55 54 53 44 43 42 42 42 43 43 42 42 44 42 40 42 42 42 41 40 40 40 40 40 38 38 38 38 38 38 37 37 38 38 36 36 36 35 35 35 35 35 36 36 37 37 37 38 38 38 37 38 38 38 38 36
44 44 44 45 46 52 57 60 62 62 63 63 63 61 58 53 46 45 49 55 50 49 49 51 51 53 57 58 55 49 48 44 43 42 41 41 41 41 41 40 40 40 39 41 43 42 40 40 40 40 40 41 39 39 38 38 36 37 38 38 37 37 36 38 37 35 34 35 34 35 34 34 35 37 37 37 37 38 39 38 37 38 37 38 37
47 47 47 49 52 55 58 60 61 62 63 63 62 60 59 58 54 47 42 49 48 48 48 49 49 49 50 52 54 54 45 43 43 42 41 41 41 40 40 39 39 39 39 41 41 40 41 40 40 40 40 39 38 38 38 38 37 37 37 37 37 37 36 37 38 38 36 35 34 33 33 34 34 35 37 37 35 37 38 38 37 38 37 37 37
50 50 51 55 57 57 58 61 61 62 62 61 60 60 59 59 59 56 51 44 47 46 46 47 48 48 48 48 49 49 46 43 42 42 41 41 40 40 39 39 39 39 39 41 41 39 40 41 40 39 38 38 38 38 38 38 38 37 37 37 36 37 37 37 36 38 36 37 35 34 33 33 33 33 33 33 34 35 36 36 37 37 37 36 34
55 55 56 57 59 60 60 61 61 62 62 61 61 60 59 59 60 59 56 54 53 50 50 47 45 46 47 47 47 47 44 42 42 41 40 40 40 40 39 39 38 38 40 42 41 39 40 40 40 39 38 38 37 37 37 38 38 37 37 37 37 38 38 38 37 37 35 36 36 34 34 34 33 33 33 33 34 35 35 34 36 36 35 35 35
58 49 45 52 59 61 61 62 62 62 61 61 60 59 59 58 59 57 57 57 57 57 57 54 48 45 49 46 46 44 43 42 42 41 40 40 40 39 39 40 38 38 40 43 42 41 40 40 39 39 38 37 36 36 36 38 38 37 37 37 37 37 36 37 37 37 37 36 36 35 34 34 34 33 33 33 32 32 33 34 35 36 36 35 34
58 57 57 56 57 57 57 58 61 62 61 61 60 59 58 57 56 56 55 55 57 57 55 54 51 46 46 45 44 43 43 43 41 41 40 39 39 39 41 40 40 40 40 43 42 42 42 41 41 40 39 38 38 36 36 37 38 38 38 37 36 37 37 37 36 36 38 37 36 35 35 34 35 34 33 33 33 33 32 33 33 34 35 35 33
54 55 56 55 56 55 56 56 57 55 52 55 57 58 57 56 56 56 56 56 56 57 57 51 48 48 47 48 45 43 43 42 41 40 39 39 39 41 44 42 42 41 41 42 43 43 42 42 41 41 40 40 38 37 37 36 37 38 38 38 38 38 37 37 37 35 36 36 36 35 35 34 34 34 33 33 32 31 31 32 32 32 32 32 32
49 50 52 54 55 55 55 55 54 47 52 55 55 57 55 56 55 55 55 56 55 55 55 52 48 53 52 50 48 47 44 39 39 39 38 38 38 44 45 43 43 42 41 43 44 44 43 43 43 42 42 41 40 39 37 36 36 37 38 38 38 38 37 36 36 37 35 36 35 35 35 34 34 34 33 33 33 32 32 31 31 31 31 31 31
49 40 39 41 45 53 53 52 52 53 53 52 52 51 51 54 54 55 56 56 53 53 53 53 52 53 54 49 47 45 44 45 44 41 40 41 43 45 46 45 44 43 43 43 43 43 44 44 44 43 43 43 42 40 39 38 37 36 37 37 38 37 37 36 36 36 35 35 35 35 35 34 34 34 34 34 33 33 33 33 32 32 32 31 31
49 49 43 42 48 47 48 48 49 50 50 53 51 51 50 50 52 52 52 53 53 51 49 47 47 47 45 46 45 46 49 48 46 43 42 42 42 44 46 45 44 44 44 44 45 45 45 46 45 46 47 48 47 46 42 39 38 36 36 35 36 36 36 36 36 36 36 35 35 35 35 34 34 33 33 33 33 33 33 33 33 32 33 32 32
50 48 43 42 44 49 48 49 49 49 49 49 49 49 50 50 49 48 49 48 46 47 47 46 46 47 45 41 40 43 49 48 47 45 43 43 43 44 45 46 45 45 45 45 46 47 48 49 48 49 49 49 47 47 45 42 40 37 36 35 35 35 36 36 36 36 36 35 35 35 34 34 34 33 33 33 34 33 32 32 32 31 32 32 32
49 49 49 48 47 48 48 47 48 47 48 46 49 50 49 49 50 49 46 47 44 45 46 46 45 43 41 40 40 40 45 47 48 46 46 45 45 45 46 48 48 47 48 48 49 48 48 48 49 49 49 49 48 46 44 44 42 38 36 35 35 35 34 35 35 35 35 35 35 35 34 34 34 33 34 35 33 33 32 32 32 32 31 31 31
48 48 49 47 48 48 47 48 48 49 48 49 49 45 47 49 49 48 47 45 46 46 46 45 43 42 40 37 38 38 44 46 43 45 46 45 46 46 47 49 50 50 50 50 50 50 49 49 48 48 48 49 49 45 43 42 41 38 37 36 35 35 34 34 34 34 35 35 34 34 34 33 33 33 33 33 33 32 32 32 32 31 31 31 31
47 47 47 47 48 48 48 49 48 47 47 44 44 46 48 49 49 48 48 48 47 47 47 45 44 43 41 39 39 41 45 46 45 46 45 44 46 46 48 49 49 50 50 50 50 50 49 49 47 47 48 48 48 47 45 42 41 39 38 36 35 35 35 34 34 34 34 34 34 34 33 33 33 33 33 32 32 32 32 31 32 32 32 31 31
48 47 47 48 47 48 48 48 47 48 46 46 49 49 47 49 48 48 48 48 45 45 45 43 42 42 41 42 43 44 46 45 43 43 44 45 44 45 47 47 47 48 48 47 47 48 48 47 46 44 45 46 46 45 44 42 42 41 39 37 36 35 35 35 35 35 34 34 34 33 33 33 33 33 33 32 32 32 32 32 32 31 31 30 29
47 47 46 47 46 46 46 47 45 47 47 48 48 48 47 48 47 46 46 46 46 45 44 44 43 43 42 44 44 43 46 46 45 45 44 44 45 47 46 46 46 47 46 45 46 47 46 46 44 43 44 45 46 43 42 42 42 41 41 40 38 37 37 37 37 35 34 34 34 34 33 33 33 33 32 32 32 32 32 32 31 31 31 31 31
48 47 47 47 47 46 45 45 46 45 47 46 46 47 47 47 46 44 42 44 44 43 45 44 44 44 44 45 45 46 46 45 46 45 45 45 47 47 47 46 45 46 45 46 46 46 45 45 45 44 43 44 43 44 42 41 40 40 40 40 39 39 38 37 36 35 35 35 34 34 33 33 33 32 32 31 31 31 31 31 30 30 30 30 29
47 47 47 46 47 47 47 47 46 43 46 45 45 45 45 46 46 45 46 45 45 45 45 44 44 45 44 45 45 46 46 46 45 44 44 45 45 46 46 46 44 44 44 44 45 45 44 43 44 44 43 42 42 43 42 40 39 38 38 38 38 38 37 35 36 36 35 34 34 34 33 33 32 32 31 31 30 30 29 29 29 28 28 28 28
46 46 46 46 46 47 47 47 46 47 47 46 46 46 45 46 46 46 46 46 46 46 46 46 45 45 46 46 45 46 46 45 46 46 43 44 45 46 46 46 43 45 44 44 44 43 44 45 44 44 44 43 43 43 41 39 38 38 37 37 36 35 35 35 35 35 35 34 33 33 33 32 32 32 31 31 31 30 29 29 29 29 28 28 28
45 45 45 45 46 46 46 47 47 48 46 47 47 46 46 45 46 46 46 46 46 46 47 46 46 46 46 46 45 46 46 46 47 47 46 44 43 44 46 47 47 45 45 44 44 43 43 43 44 44 42 42 41 41 40 39 39 38 38 38 35 34 34 34 34 34 34 33 33 33 33 32 32 32 31 31 30 30 29 29 29 30 30 29 29
42 43 43 44 45 46 46 46 46 46 47 46 46 46 45 46 46 46 46 46 46 46 46 46 47 46 46 46 46 47 47 47 46 46 45 45 46 45 45 45 45 44 44 44 44 44 44 44 42 41 40 38 39 40 39 40 39 39 37 36 35 34 34 34 35 34 34 33 33 33 32 32 32 31 31 31 30 30 30 30 30 30 30 30 30